MUOS-1 1 38093U 12009A 21061.84910727 -.00000134 00000-0 00000-0 0 9992 2 38093 2.5727 16.9844 0058464 358.0322 351.5105 1.00272034 33061 ATLAS 5 CENTAUR R/B 1 38094U 12009B 21061.48238383 -.00000168 00000-0 00000-0 0 9991 2 38094 18.7275 19.2487 6233725 309.4067 334.3380 2.11810160 69777